20060413,000009,1036781,33.756291,-120.406203,19.5,14.182,33.243,40.403,1253.66,0.0, NaN,14.174,14.116, NaN,24.731,   NaN,-40.00,1015.87,91.86,14.81,10.4,7.1,9.4,9.0,106.7,103.2,8.9,8.5,NaN, NaN,17.0,94.1,349.9,1144886409,1144886409,2,1.2,000010,000009,94.1,33.756360,-120.406378,-0.37,NaN,NaN,14.406, NaN,NaN,NaN, NaN, NaN,NaN
20060413,000039,1036811,33.756381,-120.406142,19.6,14.181,33.243,40.402,1220.08,0.0, NaN,14.175,14.117, NaN,24.731,   NaN,-40.00,1015.91,91.89,14.82,11.5,8.9,9.6,9.2,106.5,103.7,9.0,8.7,NaN, NaN,16.0,92.6,40.6,1144886439,1144886439,2,1.7,000040,000039,92.6,33.756450,-120.406315,0.35,NaN,NaN,14.405, NaN,NaN,NaN, NaN, NaN,NaN
20060413,000109,1036840,33.756458,-120.406008,19.4,14.178,33.242,40.399,1386.94,0.0, NaN,14.175,14.117, NaN,24.731,   NaN,-40.00,1015.82,91.89,14.82,12.5,10.1,9.5,9.1,107.4,105.0,9.0,8.5,NaN, NaN,17.0,97.6,141.2,1144886469,1144886469,2,0.9,000070,000069,97.6,33.756535,-120.406182,0.30,NaN,NaN,14.402, NaN,NaN,NaN, NaN, NaN,NaN
20060413,000139,1036870,33.756545,-120.405913,19.8,14.175,33.242,40.396,1365.26,0.0, NaN,14.175,14.118, NaN,24.731,   NaN,-40.00,1015.80,91.83,14.83,8.3,6.5,9.4,9.0,107.2,105.3,8.9,8.4,NaN, NaN,16.0,104.5,44.9,1144886499,1144886499,2,1.7,000099,000099,104.5,33.756646,-120.406072,-0.14,NaN,NaN,14.399, NaN,NaN,NaN, NaN, NaN,NaN
20060413,000209,1036901,33.756593,-120.405788,19.4,14.176,33.242,40.397,1350.16,0.0, NaN,14.174,14.117, NaN,24.731,   NaN,-40.00,1015.87,91.81,14.81,2.0,359.4,9.7,9.2,105.7,102.9,9.1,8.7,NaN, NaN,17.0,105.0,112.7,1144886529,1144886529,2,1.3,000130,000129,105.0,33.756691,-120.405942,0.33,NaN,NaN,14.400, NaN,NaN,NaN, NaN, NaN,NaN
20060413,000238,1036929,33.756638,-120.405620,19.5,14.180,33.243,40.402,1327.77,0.0, NaN,14.174,14.116, NaN,24.731,   NaN,-40.00,1015.93,91.82,14.82,2.2,357.9,9.7,9.2,106.6,102.0,9.1,8.6,NaN, NaN,17.0,100.5,96.0,1144886558,1144886558,2,2.9,000159,000158,100.3,33.756721,-120.405782,0.54,NaN,NaN,14.404, NaN,NaN,NaN, NaN, NaN,NaN
20060413,000309,1036961,33.756706,-120.405492,19.8,14.181,33.243,40.402,1164.93,0.0, NaN,14.175,14.117, NaN,24.731,   NaN,-40.00,1016.01,91.75,14.81,8.1,3.9,9.5,9.3,108.9,104.3,8.8,8.6,NaN, NaN,16.0,95.6,63.1,1144886589,1144886589,2,1.7,000190,000189,95.3,33.756776,-120.405670,0.19,NaN,NaN,14.405, NaN,NaN,NaN, NaN, NaN,NaN
20060413,000338,1036990,33.756778,-120.405423,19.4,14.185,33.240,40.403,1260.11,0.0, NaN,14.176,14.118, NaN,24.728,   NaN,-40.00,1015.90,91.73,14.82,14.6,11.2,9.6,9.2,110.9,107.3,9.0,8.6,NaN, NaN,17.0,89.8,76.1,1144886618,1144886618,2,0.7,000219,000218,89.5,33.756835,-120.405600,0.06,NaN,NaN,14.409, NaN,NaN,NaN, NaN, NaN,NaN
20060413,000409,1037020,33.756876,-120.405355,19.5,14.181,33.244,40.403,1377.36,0.0, NaN,14.177,14.118, NaN,24.731,   NaN,-40.00,1015.72,91.79,14.81,20.4,18.2,9.3,8.4,111.9,109.7,8.8,7.9,NaN, NaN,16.0,87.8,44.5,1144886649,1144886649,2,0.8,000250,000249,87.8,33.756930,-120.405528,0.06,NaN,NaN,14.405, NaN,NaN,NaN, NaN, NaN,NaN
20060413,000439,1037050,33.756976,-120.405257,19.6,14.183,33.243,40.404,1192.78,0.0, NaN,14.182,14.118, NaN,24.730,   NaN,-40.00,1015.82,91.76,14.81,20.7,19.8,9.5,8.6,110.5,109.7,9.0,8.1,NaN, NaN,16.0,91.0,10.7,1144886679,1144886679,2,1.4,000279,000279,91.0,33.757043,-120.405425,0.46,NaN,NaN,14.407, NaN,NaN,NaN, NaN, NaN,NaN
20060413,000509,1037081,33.757060,-120.405115,19.6,14.182,33.242,40.402,1004.05,0.0, NaN,14.179,14.118, NaN,24.729,   NaN,-40.00,1015.84,91.66,14.81,16.2,14.6,9.8,9.2,109.0,107.3,9.2,8.5,NaN, NaN,16.0,97.8,100.9,1144886709,1144886709,2,1.4,000310,000309,97.8,33.757141,-120.405273,0.52,NaN,NaN,14.406, NaN,NaN,NaN, NaN, NaN,NaN
20060413,000539,1037111,33.757150,-120.405000,19.6,14.182,33.242,40.403,992.86,0.0, NaN,14.175,14.118, NaN,24.730,   NaN,-40.00,1015.75,91.59,14.82,8.9,6.0,9.7,9.4,107.7,104.5,9.0,8.6,NaN, NaN,17.0,105.8,16.5,1144886739,1144886739,2,1.2,000340,000339,105.8,33.757251,-120.405145,0.18,NaN,NaN,14.406, NaN,NaN,NaN, NaN, NaN,610.000000
20060413,000609,1037141,33.757200,-120.404907,19.7,14.174,33.248,40.401,958.77,0.0, NaN,14.175,14.117, NaN,24.736,   NaN,-40.00,1015.83,91.59,14.84,359.3,356.6,9.2,9.4,104.4,101.5,8.6,8.8,NaN, NaN,17.0,110.6,94.2,1144886769,1144886769,2,1.1,000370,000369,110.6,33.757305,-120.405043,0.16,NaN,NaN,14.398, NaN,NaN,NaN, NaN, NaN,NaN
20060413,000638,1037170,33.757250,-120.404833,19.2,14.170,33.250,40.400,968.30,0.0, NaN,14.174,14.116, NaN,24.739,   NaN,-40.00,1015.82,91.61,14.84,353.4,350.3,9.1,9.5,103.6,100.3,8.5,8.9,NaN, NaN,17.0,115.6,36.0,1144886798,1144886798,2,0.8,000399,000398,115.6,33.757358,-120.404963,-0.26,NaN,NaN,14.394, NaN,NaN,NaN, NaN, NaN,NaN
20060413,000708,1037200,33.757268,-120.404765,19.5,14.169,33.247,40.395,990.97,0.0, NaN,14.173,14.113, NaN,24.736,   NaN,-40.00,1015.83,91.59,14.84,347.4,344.8,9.1,9.4,101.6,98.8,8.5,8.9,NaN, NaN,17.0,118.0,112.5,1144886828,1144886828,2,0.7,000428,000428,118.0,33.757386,-120.404888,0.36,NaN,NaN,14.393, NaN,NaN,NaN, NaN, NaN,NaN
20060413,000738,1037230,33.757280,-120.404647,19.5,14.165,33.247,40.392,1001.97,0.0, NaN,14.171,14.113, NaN,24.737,   NaN,-40.00,1015.84,91.58,14.82,345.6,342.9,9.1,9.6,100.9,98.1,8.5,9.1,NaN, NaN,17.0,112.8,22.6,1144886858,1144886858,2,0.7,000458,000458,112.8,33.757385,-120.404787,0.49,NaN,NaN,14.389, NaN,NaN,NaN, NaN, NaN,NaN
20060413,000808,1037259,33.757268,-120.404540,19.6,14.169,33.248,40.396,1013.41,0.0, NaN,14.170,14.111, NaN,24.737,   NaN,-40.00,1015.79,91.57,14.82,352.1,348.2,9.5,10.0,104.1,100.0,9.0,9.5,NaN, NaN,16.0,106.5,276.6,1144886888,1144886888,2,0.7,000488,000488,106.5,33.757368,-120.404695,0.28,NaN,NaN,14.393, NaN,NaN,NaN, NaN, NaN,NaN
20060413,000838,1037289,33.757310,-120.404455,19.4,14.172,33.243,40.394,1029.44,0.0, NaN,14.168,14.110, NaN,24.732,   NaN,-40.00,1016.01,91.61,14.83,0.1,356.1,9.4,9.6,106.9,102.6,8.9,9.1,NaN, NaN,16.0,101.2,91.3,1144886918,1144886918,2,0.6,000519,000518,101.2,33.757398,-120.404615,0.12,NaN,NaN,14.396, NaN,NaN,NaN, NaN, NaN,NaN
20060413,000909,1037321,33.757370,-120.404390,19.4,14.175,33.242,40.396,1092.14,0.0, NaN,14.165,14.109, NaN,24.731,   NaN,-40.00,1016.00,91.68,14.81,7.9,3.2,9.1,8.9,109.1,104.2,8.5,8.3,NaN, NaN,17.0,93.8,73.9,1144886949,1144886949,2,1.2,000550,000549,93.8,33.757438,-120.404560,-0.08,NaN,NaN,14.399, NaN,NaN,NaN, NaN, NaN,NaN
20060413,000938,1037350,33.757455,-120.404340,19.5,14.174,33.246,40.400,1159.90,0.0, NaN,14.165,14.107, NaN,24.735,   NaN,-40.00,1015.94,91.71,14.82,14.9,10.8,9.4,8.9,109.7,105.4,8.9,8.3,NaN, NaN,17.0,86.0,14.1,1144886978,1144886978,2,0.9,000579,000578,86.0,33.757501,-120.404525,-0.02,NaN,NaN,14.398, NaN,NaN,NaN, NaN, NaN,NaN
20060413,001009,1037380,33.757543,-120.404278,19.6,14.165,33.250,40.395,1162.74,0.0, NaN,14.164,14.105, NaN,24.739,   NaN,-40.00,1015.93,91.72,14.81,23.3,20.1,9.2,8.3,111.0,107.7,8.7,7.8,NaN, NaN,17.0,81.0,62.0,1144887009,1144887009,2,1.2,000609,000609,81.0,33.757580,-120.404462,0.05,NaN,NaN,14.389, NaN,NaN,NaN, NaN, NaN,NaN
20060413,001039,1037411,33.757658,-120.404193,19.5,14.161,33.247,40.390,1072.81,0.0, NaN,14.161,14.103, NaN,24.738,   NaN,-40.00,1016.06,91.83,14.84,25.7,22.7,8.7,7.6,110.3,107.3,8.2,7.1,NaN, NaN,17.0,84.6,60.0,1144887039,1144887039,2,1.4,000640,000639,84.6,33.757696,-120.404383,0.26,NaN,NaN,14.386, NaN,NaN,NaN, NaN, NaN,NaN
20060413,001109,1037441,33.757750,-120.404152,19.3,14.157,33.247,40.386,1073.17,0.0, NaN,14.157,14.102, NaN,24.739,   NaN,-40.00,1015.90,91.86,14.85,24.6,21.3,8.6,7.8,110.2,106.9,8.1,7.3,NaN, NaN,17.0,83.1,149.9,1144887069,1144887068,2,0.3,000669,000668,83.1,33.757786,-120.404330,-0.33,NaN,NaN,14.382, NaN,NaN,NaN, NaN, NaN,NaN
20060413,001139,1037471,33.757856,-120.404205,19.4,14.158,33.245,40.384,1004.28,0.0, NaN,14.155,14.100, NaN,24.737,   NaN,-40.00,1015.96,91.85,14.82,26.5,23.0,8.5,7.9,109.9,106.3,8.0,7.4,NaN, NaN,17.0,75.0,339.6,1144887099,1144887099,2,0.8,000699,000699,75.0,33.757881,-120.404390,-0.53,NaN,NaN,14.383, NaN,NaN,NaN, NaN, NaN,NaN
20060413,001209,1037500,33.757976,-120.404203,19.5,14.158,33.244,40.383,1031.76,0.0, NaN,14.153,14.100, NaN,24.736,   NaN,-40.00,1015.86,91.80,14.81,30.1,26.9,8.4,7.7,108.2,105.0,8.0,7.2,NaN, NaN,16.0,73.0,345.5,1144887129,1144887129,2,0.8,000730,000729,73.0,33.757993,-120.404387,0.09,NaN,NaN,14.383, NaN,NaN,NaN, NaN, NaN,NaN
20060413,001239,1037530,33.758098,-120.404143,19.6,14.161,33.243,40.385,991.29,0.0, NaN,14.153,14.099, NaN,24.735,   NaN,-40.00,1016.01,91.82,14.83,32.7,29.3,8.0,7.2,108.3,104.9,7.5,6.8,NaN, NaN,16.0,73.3,17.2,1144887159,1144887159,2,1.2,000759,000759,73.3,33.758115,-120.404325,0.40,NaN,NaN,14.386, NaN,NaN,NaN, NaN, NaN,NaN
20060413,001309,1037560,33.758231,-120.404042,19.5,14.167,33.246,40.392,1109.21,0.0, NaN,14.153,14.100, NaN,24.736,   NaN,-40.00,1015.94,91.87,14.83,31.5,29.5,7.7,7.0,107.5,105.6,7.2,6.5,NaN, NaN,16.0,77.1,18.6,1144887189,1144887189,2,1.4,000789,000789,77.1,33.758260,-120.404223,0.42,NaN,NaN,14.391, NaN,NaN,NaN, NaN, NaN,NaN
20060413,001339,1037591,33.758361,-120.403943,19.6,14.169,33.243,40.391,1421.98,0.0, NaN,14.153,14.100, NaN,24.733,   NaN,-40.00,1015.81,91.91,14.81,27.1,26.1,8.2,7.3,106.0,105.2,7.6,6.8,NaN, NaN,16.0,81.7,5.7,1144887219,1144887219,2,0.9,000819,000819,81.7,33.758401,-120.404120,0.34,NaN,NaN,14.393, NaN,NaN,NaN, NaN, NaN,NaN
20060413,001409,1037621,33.758476,-120.403863,19.5,14.165,33.246,40.391,1743.22,0.0, NaN,14.155,14.100, NaN,24.736,   NaN,-40.00,1015.98,91.95,14.82,22.0,20.9,8.4,7.5,105.7,104.7,7.8,7.0,NaN, NaN,16.0,87.3,30.2,1144887249,1144887249,2,1.0,000850,000849,87.6,33.758526,-120.404037,0.17,NaN,NaN,14.389, NaN,NaN,NaN, NaN, NaN,NaN
20060413,001439,1037651,33.758583,-120.403827,19.5,14.167,33.244,40.391,2169.36,0.0, NaN,14.157,14.103, NaN,24.735,   NaN,-40.00,1016.10,92.00,14.84,19.5,17.6,8.3,7.5,108.5,106.6,7.8,7.0,NaN, NaN,16.0,93.0,72.3,1144887279,1144887279,2,0.8,000880,000879,93.0,33.758653,-120.403998,0.02,NaN,NaN,14.391, NaN,NaN,NaN, NaN, NaN,NaN
20060413,001509,1037680,33.758685,-120.403742,19.4,14.169,33.242,40.390,2341.11,0.0, NaN,14.163,14.103, NaN,24.733,   NaN,-40.00,1016.11,92.01,14.82,14.5,11.7,8.4,7.7,109.4,106.4,7.9,7.2,NaN, NaN,16.0,101.8,73.5,1144887309,1144887309,2,1.4,000909,000909,101.8,33.758773,-120.403898,0.12,NaN,NaN,14.393, NaN,NaN,NaN, NaN, NaN,NaN
20060413,001539,1037710,33.758755,-120.403630,19.6,14.169,33.242,40.391,2091.04,0.0, NaN,14.164,14.108, NaN,24.733,   NaN,-40.00,1016.05,91.96,14.81,6.0,3.4,8.4,8.0,108.9,106.1,7.8,7.4,NaN, NaN,16.0,113.8,55.4,1144887339,1144887339,2,1.5,000939,000939,113.8,33.758865,-120.403773,0.10,NaN,NaN,14.393, NaN,NaN,NaN, NaN, NaN,611.000000
20060413,001608,1037740,33.758801,-120.403488,19.6,14.169,33.243,40.391,1745.82,0.0, NaN,14.168,14.111, NaN,24.733,   NaN,-40.00,1015.99,91.95,14.83,356.5,354.4,8.1,8.4,107.9,105.6,7.5,7.8,NaN, NaN,17.0,117.9,71.0,1144887368,1144887368,2,2.0,000968,000968,117.9,33.758908,-120.403618,0.35,NaN,NaN,14.393, NaN,NaN,NaN, NaN, NaN,NaN
20060413,001639,1037771,33.758796,-120.403330,19.6,14.166,33.245,40.391,1849.42,0.0, NaN,14.171,14.114, NaN,24.736,   NaN,-40.00,1016.11,91.93,14.85,349.0,346.8,7.8,8.6,105.4,103.1,7.2,8.0,NaN, NaN,17.0,118.6,86.1,1144887399,1144887399,2,1.8,001000,000999,118.6,33.758903,-120.403467,0.54,NaN,NaN,14.390, NaN,NaN,NaN, NaN, NaN,NaN
20060413,001708,1037799,33.758750,-120.403158,19.4,14.167,33.244,40.390,1633.51,0.0, NaN,14.173,14.117, NaN,24.734,   NaN,-40.00,1016.01,91.90,14.87,346.6,345.1,7.8,8.7,103.6,102.2,7.2,8.0,NaN, NaN,17.0,117.5,117.2,1144887428,1144887428,2,2.1,001029,001028,117.5,33.758851,-120.403280,0.77,NaN,NaN,14.391, NaN,NaN,NaN, NaN, NaN,NaN
20060413,001738,1037830,33.758725,-120.403020,19.6,14.163,33.244,40.388,1608.53,0.0, NaN,14.174,14.116, NaN,24.735,   NaN,-40.00,1016.05,91.89,14.86,350.1,347.0,8.2,8.6,105.6,102.2,7.5,8.0,NaN, NaN,16.0,111.5,105.9,1144887458,1144887458,2,0.9,001058,001058,111.5,33.758810,-120.403152,0.44,NaN,NaN,14.388, NaN,NaN,NaN, NaN, NaN,NaN
20060413,001808,1037860,33.758721,-120.402893,19.5,14.166,33.243,40.389,1827.37,0.0, NaN,14.173,14.117, NaN,24.734,   NaN,-40.00,1016.01,91.92,14.90,354.1,350.3,8.0,8.2,105.9,101.7,7.4,7.6,NaN, NaN,17.0,108.8,88.3,1144887488,1144887488,2,0.8,001088,001088,108.8,33.758801,-120.403035,0.27,NaN,NaN,14.390, NaN,NaN,NaN, NaN, NaN,NaN
20060413,001839,1037890,33.758718,-120.402782,19.6,14.163,33.247,40.391,1827.27,0.0, NaN,14.172,14.115, NaN,24.737,   NaN,-40.00,1016.15,91.96,14.89,355.8,353.0,7.5,7.6,104.6,101.6,7.0,7.1,NaN, NaN,16.0,107.6,110.3,1144887519,1144887519,2,0.9,001119,001119,107.6,33.758805,-120.402935,0.19,NaN,NaN,14.388, NaN,NaN,NaN, NaN, NaN,NaN
20060413,001908,1037920,33.758748,-120.402685,19.6,14.160,33.248,40.389,1812.37,0.0, NaN,14.171,14.113, NaN,24.739,   NaN,-40.00,1016.07,91.94,14.86,359.5,354.7,8.2,7.9,107.0,101.8,7.7,7.4,NaN, NaN,16.0,105.5,262.2,1144887548,1144887548,2,0.5,001148,001148,105.5,33.758826,-120.402853,0.13,NaN,NaN,14.385, NaN,NaN,NaN, NaN, NaN,NaN
20060413,001939,1037951,33.758765,-120.402523,19.7,14.150,33.247,40.379,2073.64,0.0, NaN,14.170,14.113, NaN,24.740,   NaN,-40.00,1016.09,91.94,14.83,1.8,356.1,8.5,8.1,106.8,100.7,8.0,7.6,NaN, NaN,16.0,98.5,144.6,1144887579,1144887579,2,0.8,001180,001179,98.5,33.758820,-120.402702,0.33,NaN,NaN,14.375, NaN,NaN,NaN, NaN, NaN,612.000000
20060413,002008,1037979,33.758815,-120.402390,19.6,14.151,33.248,40.381,2207.82,0.0, NaN,14.168,14.110, NaN,24.740,   NaN,-40.00,1016.08,91.97,14.81,5.7,0.6,8.0,7.7,105.3,99.9,7.4,7.1,NaN, NaN,16.0,89.1,93.4,1144887608,1144887608,2,1.1,001209,001208,89.1,33.758856,-120.402572,0.46,NaN,NaN,14.376, NaN,NaN,NaN, NaN, NaN,NaN
20060413,002039,1038010,33.758911,-120.402277,19.4,14.150,33.244,40.375,2383.87,0.0, NaN,14.162,14.105, NaN,24.738,   NaN,-40.00,1016.17,92.01,14.83,14.8,10.6,8.3,7.6,106.3,101.8,7.7,7.1,NaN, NaN,16.0,84.6,18.1,1144887639,1144887639,2,1.3,001240,001239,84.6,33.758945,-120.402468,0.32,NaN,NaN,14.375, NaN,NaN,NaN, NaN, NaN,NaN
20060413,002108,1038040,33.758980,-120.402182,19.7,14.153,33.239,40.373,1995.73,0.0, NaN,14.154,14.100, NaN,24.733,   NaN,-40.00,1016.09,92.04,14.83,20.7,17.9,8.0,7.5,108.1,105.1,7.5,6.9,NaN, NaN,16.0,85.6,113.0,1144887668,1144887668,2,0.6,001268,001268,85.6,33.759030,-120.402362,0.56,NaN,NaN,14.378, NaN,NaN,NaN, NaN, NaN,NaN
20060413,002138,1038070,33.759086,-120.402022,19.6,14.153,33.243,40.376,1685.42,0.0, NaN,14.152,14.096, NaN,24.736,   NaN,-40.00,1016.17,92.11,14.82,19.1,17.5,7.5,7.1,109.4,107.7,6.9,6.5,NaN, NaN,15.0,98.5,62.1,1144887698,1144887698,2,1.3,001298,001298,98.5,33.759158,-120.402185,0.74,NaN,NaN,14.378, NaN,NaN,NaN, NaN, NaN,NaN
20060413,002208,1038099,33.759130,-120.401818,19.4,14.158,33.242,40.381,1546.35,0.0, NaN,14.152,14.095, NaN,24.735,   NaN,-40.00,1016.12,92.19,14.82,9.2,7.1,7.7,7.4,109.7,107.4,6.9,6.7,NaN, NaN,16.0,116.0,100.6,1144887728,1144887728,2,1.5,001329,001328,116.0,33.759241,-120.401948,0.70,NaN,NaN,14.383, NaN,NaN,NaN, NaN, NaN,NaN
20060413,002238,1038129,33.759161,-120.401670,19.5,14.149,33.249,40.379,1502.29,0.0, NaN,14.152,14.097, NaN,24.742,   NaN,-40.00,1016.13,92.14,14.81,354.8,351.8,7.5,7.8,108.7,105.5,6.7,7.1,NaN, NaN,16.0,128.7,43.2,1144887758,1144887758,2,1.1,001359,001358,128.7,33.759295,-120.401777,0.30,NaN,NaN,14.374, NaN,NaN,NaN, NaN, NaN,613.000000
20060413,002308,1038159,33.759151,-120.401585,19.4,14.148,33.245,40.375,1539.62,0.0, NaN,14.152,14.097, NaN,24.739,   NaN,-40.00,1016.07,92.18,14.82,339.0,337.8,6.9,7.7,105.1,104.0,6.3,7.0,NaN, NaN,17.0,139.0,163.5,1144887788,1144887788,2,0.3,001389,001388,139.0,33.759310,-120.401648,0.23,NaN,NaN,14.373, NaN,NaN,NaN, NaN, NaN,NaN
20060413,002338,1038190,33.759073,-120.401468,19.2,14.151,33.244,40.376,1384.68,0.0, NaN,14.153,14.100, NaN,24.738,   NaN,-40.00,1015.97,92.17,14.83,328.8,329.2,6.9,7.5,102.2,102.8,6.3,6.9,NaN, NaN,18.0,133.0,189.6,1144887818,1144887818,2,1.6,001419,001418,133.0,33.759218,-120.401560,0.63,NaN,NaN,14.376, NaN,NaN,NaN, NaN, NaN,NaN
20060413,002408,1038220,33.758978,-120.401303,19.9,14.155,33.242,40.377,1405.15,0.0, NaN,14.154,14.100, NaN,24.735,   NaN,-40.00,1015.92,92.14,14.84,331.7,332.2,7.4,7.9,99.9,100.6,6.7,7.3,NaN, NaN,18.0,114.6,164.6,1144887848,1144887848,2,1.6,001448,001448,114.6,33.759086,-120.401432,0.77,NaN,NaN,14.380, NaN,NaN,NaN, NaN, NaN,NaN
20060413,002438,1038250,33.758956,-120.401107,19.6,14.152,33.247,40.381,1320.01,0.0, NaN,14.154,14.100, NaN,24.740,   NaN,-40.00,1016.06,92.16,14.81,348.1,347.0,7.8,8.0,100.4,99.3,7.0,7.2,NaN, NaN,17.0,93.0,134.2,1144887878,1144887878,2,1.1,001478,001478,92.5,33.759015,-120.401277,0.61,NaN,NaN,14.377, NaN,NaN,NaN, NaN, NaN,NaN
20060413,002509,1038281,33.758995,-120.400918,19.7,14.156,33.242,40.379,1166.04,0.0, NaN,14.154,14.101, NaN,24.735,   NaN,-40.00,1016.08,92.22,14.81,9.5,6.8,8.2,7.6,102.7,99.8,7.5,6.9,NaN, NaN,17.0,72.0,104.7,1144887909,1144887909,2,1.1,001509,001509,71.6,33.759005,-120.401103,0.39,NaN,NaN,14.381, NaN,NaN,NaN, NaN, NaN,NaN
20060413,002539,1038311,33.759110,-120.400720,19.4,14.161,33.242,40.384,866.56,0.0, NaN,14.155,14.101, NaN,24.734,   NaN,-40.00,1016.15,92.16,14.83,28.7,23.9,8.0,7.1,107.5,102.6,7.4,6.4,NaN, NaN,17.0,72.6,73.9,1144887939,1144887939,2,2.0,001540,001539,72.8,33.759126,-120.400910,1.24,NaN,NaN,14.386, NaN,NaN,NaN, NaN, NaN,NaN
20060413,002609,1038341,33.759236,-120.400500,19.4,14.158,33.244,40.383,963.75,0.0, NaN,14.153,14.100, NaN,24.736,   NaN,-40.00,1016.18,92.16,14.82,34.6,29.7,7.7,6.7,112.6,107.8,7.0,6.0,NaN, NaN,16.0,84.0,52.7,1144887969,1144887969,2,1.8,001569,001569,83.5,33.759288,-120.400680,1.16,NaN,NaN,14.383, NaN,NaN,NaN, NaN, NaN,NaN
20060413,002638,1038370,33.759325,-120.400257,19.6,14.155,33.246,40.383,1440.88,0.0, NaN,14.152,14.098, NaN,24.739,   NaN,-40.00,1016.17,92.24,14.80,23.8,21.5,8.1,7.4,109.7,107.6,7.3,6.5,NaN, NaN,16.0,91.6,88.6,1144887998,1144887998,2,1.7,001599,001598,91.6,33.759388,-120.400445,1.08,NaN,NaN,14.380, NaN,NaN,NaN, NaN, NaN,NaN
20060413,002709,1038400,33.759396,-120.400022,19.8,14.160,33.243,40.384,1635.60,0.0, NaN,14.152,14.098, NaN,24.735,   NaN,-40.00,1016.12,92.26,14.80,13.6,11.4,8.4,8.1,105.8,103.5,7.6,7.2,NaN, NaN,16.0,93.0,48.7,1144888029,1144888029,2,1.2,001629,001629,93.0,33.759460,-120.400195,1.00,NaN,NaN,14.385, NaN,NaN,NaN, NaN, NaN,NaN
20060413,002739,1038431,33.759463,-120.399782,19.5,14.160,33.244,40.386,1453.57,0.0, NaN,14.152,14.094, NaN,24.736,   NaN,-40.00,1016.17,92.27,14.81,13.0,10.2,8.6,8.3,106.3,103.3,7.8,7.5,NaN, NaN,17.0,87.6,104.9,1144888059,1144888059,2,1.5,001659,001659,87.6,33.759496,-120.399965,1.13,NaN,NaN,14.385, NaN,NaN,NaN, NaN, NaN,NaN
20060413,002808,1038459,33.759520,-120.399530,19.8,14.147,33.254,40.386,1378.76,0.0, NaN,14.150,14.090, NaN,24.747,   NaN,-40.00,1016.00,92.31,14.81,18.7,15.3,8.5,8.0,108.1,104.5,7.7,7.1,NaN, NaN,16.0,78.7,139.4,1144888088,1144888088,2,1.1,001689,001688,78.7,33.759540,-120.399727,1.17,NaN,NaN,14.372, NaN,NaN,NaN, NaN, NaN,NaN
20060413,002838,1038489,33.759643,-120.399287,19.4,14.156,33.242,40.379,932.52,0.0, NaN,14.148,14.089, NaN,24.735,   NaN,-40.00,1016.10,92.31,14.84,27.3,23.2,7.9,7.1,109.5,105.4,7.1,6.2,NaN, NaN,16.0,70.5,37.4,1144888118,1144888118,2,1.7,001719,001718,70.5,33.759641,-120.399480,1.33,NaN,NaN,14.381, NaN,NaN,NaN, NaN, NaN,NaN
20060413,002908,1038520,33.759766,-120.399018,19.6,14.144,33.252,40.378,839.26,0.0, NaN,14.144,14.084, NaN,24.745,   NaN,-40.00,1016.13,92.27,14.81,33.2,29.8,7.6,6.6,111.5,108.4,6.8,5.8,NaN, NaN,16.0,77.8,61.2,1144888148,1144888148,2,2.5,001749,001748,77.8,33.759790,-120.399202,1.65,NaN,NaN,14.369, NaN,NaN,NaN, NaN, NaN,NaN
20060413,002939,1038550,33.759878,-120.398733,19.6,14.137,33.245,40.364,1052.23,0.0, NaN,14.141,14.082, NaN,24.741,   NaN,-40.00,1016.10,92.29,14.80,28.7,27.7,8.4,7.3,111.6,111.0,7.5,6.4,NaN, NaN,16.0,89.5,63.5,1144888179,1144888179,2,1.9,001779,001779,89.5,33.759930,-120.398900,1.52,NaN,NaN,14.362, NaN,NaN,NaN, NaN, NaN,NaN
20060413,003009,1038581,33.759941,-120.398468,19.5,14.146,33.242,40.369,1168.59,0.0, NaN,14.138,14.082, NaN,24.737,   NaN,-40.00,1015.97,92.29,14.80,20.9,19.2,9.2,8.5,111.4,109.7,8.3,7.6,NaN, NaN,16.0,93.5,56.3,1144888209,1144888209,2,1.0,001809,001809,93.5,33.760010,-120.398640,1.20,NaN,NaN,14.371, NaN,NaN,NaN, NaN, NaN,NaN
20060413,003039,1038611,33.760001,-120.398205,19.8,14.140,33.247,40.369,1071.78,0.0, NaN,14.133,14.077, NaN,24.743,   NaN,-40.00,1015.62,92.34,14.82,16.5,14.2,8.9,8.6,111.1,108.5,8.0,7.8,NaN, NaN,16.0,91.5,13.7,1144888239,1144888239,2,0.7,001839,001839,91.5,33.760055,-120.398385,1.05,NaN,NaN,14.365, NaN,NaN,NaN, NaN, NaN,NaN
20060413,003109,1038641,33.760058,-120.397960,19.4,14.140,33.244,40.366,1034.40,0.0, NaN,14.133,14.074, NaN,24.740,   NaN,-40.00,1015.95,92.31,14.82,17.9,16.5,8.8,8.1,109.6,108.2,8.0,7.3,NaN, NaN,16.0,79.4,59.3,1144888269,1144888269,2,1.7,001869,001869,79.4,33.760088,-120.398138,1.13,NaN,NaN,14.365, NaN,NaN,NaN, NaN, NaN,NaN
20060413,003139,1038671,33.760158,-120.397698,19.7,14.145,33.240,40.367,887.79,0.0, NaN,14.132,14.077, NaN,24.736,   NaN,-40.00,1016.00,92.30,14.82,29.7,26.7,8.6,7.1,111.7,109.7,7.9,6.3,NaN, NaN,16.0,64.8,59.6,1144888299,1144888299,2,1.6,001900,001899,64.8,33.760161,-120.397887,1.07,NaN,NaN,14.370, NaN,NaN,NaN, NaN, NaN,NaN
20060413,003209,1038700,33.760318,-120.397462,19.8,14.146,33.243,40.371,835.29,0.0, NaN,14.133,14.078, NaN,24.738,   NaN,-40.00,1015.87,92.31,14.82,40.7,36.6,7.7,6.1,114.1,111.2,7.0,5.4,NaN, NaN,16.0,69.1,33.7,1144888329,1144888329,2,1.8,001929,001929,69.1,33.760333,-120.397643,1.47,NaN,NaN,14.371, NaN,NaN,NaN, NaN, NaN,NaN
20060413,003238,1038730,33.760446,-120.397242,19.4,14.151,33.244,40.376,783.97,0.0, NaN,14.133,14.081, NaN,24.738,   NaN,-40.00,1016.10,92.27,14.81,40.0,36.0,7.5,6.1,115.1,112.1,6.8,5.3,NaN, NaN,16.0,80.3,61.1,1144888358,1144888358,2,1.4,001958,001958,80.3,33.760491,-120.397425,1.13,NaN,NaN,14.376, NaN,NaN,NaN, NaN, NaN,NaN
20060413,003309,1038761,33.760553,-120.397062,19.8,14.156,33.242,40.379,894.88,0.0, NaN,14.139,14.082, NaN,24.735,   NaN,-40.00,1016.17,92.29,14.81,30.6,27.1,8.2,7.0,114.4,111.1,7.5,6.2,NaN, NaN,16.0,88.6,60.4,1144888389,1144888389,2,1.4,001989,001989,88.6,33.760613,-120.397243,0.79,NaN,NaN,14.381, NaN,NaN,NaN, NaN, NaN,NaN
20060413,003339,1038791,33.760633,-120.396852,19.5,14.159,33.242,40.382,902.56,0.0, NaN,14.142,14.083, NaN,24.734,   NaN,-40.00,1016.08,92.28,14.83,23.0,20.0,8.8,8.0,112.1,109.1,8.1,7.3,NaN, NaN,16.0,88.3,80.9,1144888419,1144888419,2,1.3,002019,002019,88.3,33.760686,-120.397028,0.86,NaN,NaN,14.384, NaN,NaN,NaN, NaN, NaN,NaN
20060413,003409,1038821,33.760711,-120.396618,19.7,14.163,33.241,40.384,803.73,0.0, NaN,14.143,14.084, NaN,24.733,   NaN,-40.00,1015.83,92.27,14.80,22.9,19.2,9.1,8.2,112.1,108.3,8.4,7.5,NaN, NaN,16.0,82.0,35.8,1144888449,1144888449,2,1.2,002050,002049,82.0,33.760745,-120.396807,1.04,NaN,NaN,14.388, NaN,NaN,NaN, NaN, NaN,NaN
20060413,003439,1038850,33.760796,-120.396398,19.6,14.167,33.242,40.388,734.00,0.0, NaN,14.146,14.087, NaN,24.733,   NaN,-40.00,1015.81,92.20,14.79,26.9,22.8,8.9,7.5,110.9,107.1,8.2,6.7,NaN, NaN,15.0,73.0,66.1,1144888479,1144888479,2,1.6,002080,002079,73.0,33.760818,-120.396580,1.07,NaN,NaN,14.391, NaN,NaN,NaN, NaN, NaN,NaN
20060413,003508,1038880,33.760898,-120.396192,19.8,14.167,33.242,40.389,684.84,0.0, NaN,14.147,14.090, NaN,24.733,   NaN,-40.00,1015.94,92.20,14.82,32.5,29.5,8.4,6.8,109.4,106.9,7.7,6.1,NaN, NaN,16.0,66.6,39.1,1144888508,1144888508,2,1.1,002109,002108,66.6,33.760930,-120.396400,0.98,NaN,NaN,14.391, NaN,NaN,NaN, NaN, NaN,NaN
20060413,003539,1038910,33.761031,-120.396015,19.8,14.167,33.244,40.390,688.15,0.0, NaN,14.149,14.091, NaN,24.734,   NaN,-40.00,1015.83,92.11,14.81,41.2,37.9,7.9,6.1,113.1,110.9,7.3,5.5,NaN, NaN,17.0,69.3,0.8,1144888539,1144888539,2,1.7,002139,002139,69.3,33.761086,-120.396222,0.69,NaN,NaN,14.391, NaN,NaN,NaN, NaN, NaN,NaN